Location: Newark
(25.4800°N, 85.7200°E)
Time: 23:15:06
(UTC+00:00)

Vanguard 1 Rocket - Pass Details

Date: 26 August 2019
Orbit: 650 x 4226 km, 34.3° (Epoch: 17 October)

Event Time Altitude Azimuth Distance (km) Brightness Sun altitude
Rises 00:48:02 0° 292° (WNW) 3,527 9.9 11.0°
Reaches altitude 10° 00:50:03 10° 291° (WNW) 2,802 9.4 11.4°
Maximum altitude 00:56:47 75° 207° (SSW) 1,534 8.7 12.9°
Drops below altitude 10° 01:10:12 10° 124° (SE) 5,287 12.3 16.0°
Sets 01:15:35 0° 123° (ESE) 6,877 12.8 17.2°
